This is the latest recevied weather packets stored in our database for station/object KB2AHZ. If no packets are shown the sender has not sent any weather packets the latest 10 day(s).
| Time | Temp. | Humidity | Pressure | Rain* | Wind** | Luminosity | Snow |
|---|---|---|---|---|---|---|---|
| 1777892947 | 7.22° C | 85% | 1017.8 hPa | 0 mm | - | 46 W/m² | - |
| 1777892644 | 7.22° C | 84% | 1017.8 hPa | 0 mm | - | 38 W/m² | - |
| 1777892339 | 6.67° C | 85% | 1017.8 hPa | 0 mm | - | 38 W/m² | - |
| 1777892036 | 6.67° C | 86% | 1017.8 hPa | 0 mm | - | 34 W/m² | - |
| 1777891734 | 6.67° C | 85% | 1017.4 hPa | 0 mm | - | 26 W/m² | - |
| 1777891429 | 6.67° C | 86% | 1017.5 hPa | 0 mm | - | 20 W/m² | - |
| 1777891125 | 6.11° C | 86% | 1017.2 hPa | 0 mm | - | 17 W/m² | - |
| 1777890820 | 6.67° C | 85% | 1017.4 hPa | 0 mm | - | 12 W/m² | - |
| 1777890517 | 6.11° C | 85% | 1017.7 hPa | 0 mm | - | 8 W/m² | - |
| 1777890212 | 6.11° C | 87% | 1017.7 hPa | 0 mm | - | 5 W/m² | - |
| 1777889908 | 6.67° C | 88% | 1017.3 hPa | 0 mm | - | 3 W/m² | - |
| 1777889607 | 6.67° C | 87% | 1017.2 hPa | 0 mm | - | 2 W/m² | - |
| 1777889304 | 6.67° C | 87% | 1017.2 hPa | 0 mm | - | 1 W/m² | - |
| 1777889001 | 6.67° C | 86% | 1017 hPa | 0 mm | - | 0 W/m² | - |
| 1777888699 | 6.67° C | 86% | 1017.2 hPa | 0 mm | - | 0 W/m² | - |
| 1777888394 | 6.67° C | 87% | 1017.4 hPa | 0 mm | - | 0 W/m² | - |
| 1777888091 | 6.67° C | 87% | 1017 hPa | 0 mm | - | 0 W/m² | - |
| 1777887788 | 6.67° C | 87% | 1017 hPa | 0 mm | - | 0 W/m² | - |
| 1777887485 | 6.67° C | 86% | 1017 hPa | 0 mm | - | 0 W/m² | - |
| 1777887180 | 6.67° C | 85% | 1017 hPa | 0 mm | - | 0 W/m² | - |
| 1777886876 | 6.67° C | 85% | 1017.3 hPa | 0 mm | - | 0 W/m² | - |
| 1777886572 | 6.67° C | 85% | 1017.2 hPa | 0 mm | - | 0 W/m² | - |
| 1777886270 | 7.22° C | 84% | 1017.3 hPa | 0 mm | - | 0 W/m² | - |
| 1777885967 | 7.22° C | 84% | 1017.3 hPa | 0 mm | - | 0 W/m² | - |
| 1777885666 | 7.22° C | 83% | 1017.4 hPa | 0 mm | - | 0 W/m² | - |
* Rain latest hour (hover to see other rain measurements)
** Current wind speed in m/s (hover to see current wind gust speed)